Temp_Advection
nan nan nan nan nan nan nan nan nan nan nan nan nan nan nan nan nan nan nan nan nan nan nan nan nan nan nan nan nan nan nan nan nan nan nan nan nan nan nan nan nan nan nan
nan 0 0 -0 -0 0 0 -0 0 0 -0 -0 -0 -0 -0 -0 -0 -0 0 0 0 0 -0 -0 -0 -0 -0 -0 -0 -0 -0 -0 0 -0 -0 0 0 -0 0 -0 -0 -0 nan
nan 0 0 0 0 0 -0 -0 -0 -0 0 -0 -0 -0 -0 -0 -0 -0 -0 -0 -0 -0 -0 -0 0 -0 -0 -0 -0 -0 -0 -0 0 -0 -0 -0 0 0 0 0 0 -0 nan
nan 0 0 0 -0 -0 -0 -0 -0 -0 -0 -0 0 -0 -0 -0 -0 -0 -0 -0 -0 -0 -0 -0 -0 -0 -0 -0 -0 -0 0 0 0 0 -0 0 -0 -0 0 0 0 -0 nan
nan 0 0 0 0 0 0 -0 -0 -0 -0 -0 -0 -0 -0 -0 -0 -0 -0 -0 -0 -0 -0 -0 -0 -0 -0 -0 -0 -0 -0 -0 -0 -0 -0 -0 -0 -0 -0 0 0 0 nan
nan 0 -0 -0 -0 -0 -0 0 -0 -0 -0 -0 -0 -0 -0 0 -0 -0 -0 -0 -0 -0 -0 0 -0 -0 -0 -0 -0 -0 -0 -0 -0 0 -0 0 -0 -0 0 0 0 0 nan
nan 0 0 -0 -0 -0 -0 -0 -0 -0 -0 -0 -0 -0 -0 -0 -0 -0 -0 -0 -0 0 0 0 -0 -0 0 -0 -0 -0 -0 -0 -0 0 0 -0 -0 -0 -0 0 0 0 nan
nan 0 0 0 -0 -0 -0 -0 -0 -0 -0 -0 -0 -0 -0 -0 -0 -0 -0 -0 -0 -0 0 0 0 -0 -0 0 0 -0 -0 -0 -0 0 0 0 0 -0 -0 0 -0 0 nan
nan 0 0 0 -0 -0 -0 -0 -0 -0 -0 -0 0 -0 -0 -0 -0 -0 -0 -0 -0 -0 -0 0 0 0 -0 -0 -0 0 -0 -0 -0 0 0 0 -0 -0 -0 -0 -0 0 nan
nan -0 -0 -0 -0 -0 -0 -0 -0 -0 -0 -0 -0 0 -0 -0 -0 -0 0 -0 -0 -0 -0 -0 0 -0 -0 -0 -0 0 -0 -0 0 0 0 0 0 -0 -0 -0 0 0 nan
nan -1 -1 -1 -1 -1 -1 -0 -0 -0 -0 -0 -0 -0 -0 -0 -0 0 0 -0 -0 -1 -1 -0 -0 0 -0 -0 -0 -0 -0 -0 -0 0 0 0 -0 -0 -0 -0 0 0 nan
nan -1 -1 -1 -1 -1 -1 -1 -1 -1 -0 -0 -0 -0 -0 0 -0 -0 -0 0 -0 -0 -0 -0 -0 0 -0 -0 -0 -0 -0 0 0 0 -0 -0 -0 -0 -0 -0 0 0 nan
nan -1 -1 -1 -1 -1 -2 -1 -1 -1 -1 -1 -1 -1 -1 -0 -0 -0 0 0 0 -0 -0 -1 -0 0 0 -0 -0 -0 -0 -0 -0 0 0 -0 -0 -0 -0 0 0 0 nan
nan -1 -1 -1 -1 -1 -2 -2 -2 -1 -1 -1 -2 -1 -1 -1 -0 -0 -0 0 0 -0 -0 -0 -0 -0 0 0 -0 0 0 -0 0 0 -0 -0 -0 -0 -0 0 0 0 nan
nan -1 -1 -1 -1 -1 -1 -1 -2 -2 -1 -1 -2 -2 -2 -1 -1 -1 -0 -0 -0 0 -0 -0 -1 -0 -0 0 0 -0 0 0 -0 -0 -1 -0 0 -0 0 0 0 0 nan
nan -1 -0 -1 -1 -1 -1 -1 -1 -1 -1 -1 -1 -2 -2 -2 -1 -1 -1 -1 -0 -0 -0 0 -0 -1 -1 0 0 0 0 -0 -0 0 -1 -1 0 0 0 0 0 0 nan
nan 0 0 0 -0 -0 -0 -1 -1 -1 -1 -1 -1 -1 -1 -2 -2 -1 -2 -1 -1 -1 -0 -0 -0 -0 -0 -0 -0 0 -0 0 0 -0 -1 -0 0 0 0 0 0 -0 nan
nan -0 -1 -1 -1 -0 -0 -0 -0 -1 -1 -1 -1 -1 -1 -1 -2 -2 -1 -1 -2 -2 -1 -0 -0 -0 -0 0 -0 -0 0 -0 -0 -0 -1 -0 -0 -0 0 0 0 -0 nan
nan -1 -1 -1 -1 -1 -1 -1 -1 -0 -0 -1 -1 -1 -1 -1 -1 -2 -2 -2 -2 -2 -1 -1 -0 -0 -0 0 -0 -1 0 1 0 -0 -1 -1 -0 -0 0 0 0 -0 nan
nan -0 -0 -0 -1 -1 -1 -1 -1 -1 -0 -1 -1 -2 -2 -1 -1 -2 -2 -1 -2 -2 -2 -1 -0 -0 -0 -0 0 0 0 0 0 -0 -1 -1 -0 0 0 0 -0 -0 nan
nan 0 -0 -0 -1 -1 -1 -2 -2 -1 -1 -1 -1 -1 -2 -1 -1 -2 -2 -2 -2 -2 -1 -2 -1 -1 -0 -0 0 1 0 0 -0 -1 -1 -1 -0 0 0 -0 -0 0 nan
nan -0 -1 -1 -1 -2 -2 -2 -2 -2 -1 -1 -1 -1 -1 -1 -1 -1 -2 -3 -2 -2 -2 -1 -1 -2 -1 -1 -0 0 0 -0 -0 -1 -1 -1 -0 0 -0 0 0 0 nan
nan -1 -1 -1 -1 -1 -2 -2 -2 -2 -2 -1 -1 -1 -1 -1 -1 -1 -1 -2 -2 -2 -3 -2 -0 -1 -3 -0 -0 0 0 -1 -0 -0 -1 -1 -0 0 0 -0 0 0 nan
nan -1 -1 -1 -1 -1 -1 -1 -1 -2 -2 -2 -2 -2 -1 -1 -1 -1 -1 -1 -2 -2 -2 -2 -1 -0 -2 -2 -1 -2 -1 -0 0 0 -0 -0 0 0 0 0 0 0 nan
nan -0 -0 -0 -0 -0 -0 -1 -1 -1 -1 -1 -1 -1 -1 -1 -1 -1 -1 -1 -1 -2 -1 -2 -2 -1 -1 -2 -1 -1 -1 0 -0 -0 -0 0 0 0 0 0 -0 -0 nan
nan nan nan nan nan nan nan nan nan nan nan nan nan nan nan nan nan nan nan nan nan nan nan nan nan nan nan nan nan nan nan nan nan nan nan nan nan nan nan nan nan nan nan
Wind_Speed
25 20 13 12 16 12 12 8 8 9 6 6 8 8 8 10 11 11 12 11 9 8 7 5 5 4 5 4 4 3 2 2 3 5 6 6 7 10 10 10 8 8 9
23 18 10 9 12 8 7 7 7 8 7 6 6 7 7 8 10 11 12 12 11 9 7 7 5 5 5 5 4 3 2 1 2 4 5 4 6 8 7 7 7 9 9
24 21 14 7 7 4 4 4 3 4 6 6 7 8 8 8 8 8 10 11 12 11 8 6 5 5 6 5 3 4 3 1 1 3 4 5 2 5 6 4 4 6 8
26 24 17 6 5 6 4 4 4 4 4 4 5 7 8 9 10 11 10 10 10 10 8 7 6 5 5 6 4 3 3 3 3 2 7 2 4 4 5 4 3 4 8
24 24 18 13 6 4 6 6 5 5 6 4 6 6 6 8 9 10 10 10 10 10 10 9 8 7 6 6 6 5 4 4 4 3 4 3 6 6 6 5 4 8 11
23 24 21 15 11 5 5 6 7 7 7 5 5 6 7 7 7 9 10 10 10 10 10 10 9 8 7 7 6 7 7 6 3 3 2 3 8 10 7 7 7 12 10
20 20 22 20 13 11 7 8 9 9 9 9 8 8 8 9 7 8 9 10 11 12 11 11 11 10 9 7 7 7 8 9 7 5 2 9 10 15 9 9 10 13 11
20 20 19 19 17 13 12 9 8 9 10 11 11 11 10 10 10 10 9 11 13 13 12 13 12 12 11 10 9 8 9 9 10 7 6 7 12 15 12 12 13 14 13
18 19 20 19 17 16 13 12 12 11 11 11 14 15 12 12 12 11 11 13 15 15 14 14 14 13 13 12 11 10 11 10 10 9 8 7 16 14 12 14 15 15 13
19 20 20 19 19 18 17 14 14 14 14 15 13 15 15 14 14 14 11 14 16 14 14 14 14 14 13 13 12 11 12 12 11 9 11 11 14 16 12 15 15 16 16
22 23 23 22 21 20 17 15 13 15 16 17 17 16 16 15 14 13 11 10 13 16 17 16 15 15 14 12 12 13 13 12 11 10 13 14 13 16 13 15 17 18 18
25 27 26 25 25 24 22 21 19 15 14 15 17 18 17 15 14 13 12 12 10 15 16 18 17 15 15 13 12 12 12 12 8 12 11 15 13 13 15 15 18 17 19
27 26 27 27 26 26 25 24 23 22 20 19 16 17 17 18 17 16 15 12 10 13 17 17 18 14 10 12 11 13 11 9 13 13 15 14 14 13 14 16 17 18 20
26 27 27 27 27 26 26 26 26 24 23 24 22 20 18 17 19 19 16 16 14 13 17 20 18 17 13 14 16 14 10 13 15 15 14 15 15 14 14 16 18 18 20
25 27 28 28 29 29 28 27 26 26 26 25 25 25 22 21 20 20 19 22 18 15 14 21 21 20 20 18 18 16 15 14 14 14 16 18 13 16 14 16 18 19 21
23 25 27 28 29 29 29 29 29 28 27 27 26 26 28 25 23 22 20 22 20 20 21 18 23 22 22 21 22 20 18 17 15 16 20 20 16 17 17 17 19 20 22
23 26 28 30 30 30 29 29 29 29 28 28 29 28 27 28 28 26 23 23 22 22 21 24 22 24 23 24 21 24 22 21 20 21 22 22 20 18 20 18 20 21 24
20 22 23 24 25 28 31 32 31 29 28 28 28 29 31 30 30 29 27 26 25 26 24 20 23 24 26 24 23 26 27 28 27 26 24 22 21 18 20 21 21 21 25
18 21 23 25 26 27 27 27 28 29 29 28 27 28 30 32 31 31 30 27 29 27 23 24 27 26 29 29 29 29 26 26 27 28 27 24 22 20 19 22 21 21 15
19 22 24 27 29 31 31 30 29 29 29 29 29 28 30 32 32 32 30 29 29 29 28 25 19 29 29 30 27 28 31 29 28 27 27 27 24 21 18 20 20 20 21
17 20 23 24 26 27 29 31 32 33 32 31 30 30 30 30 31 32 31 30 30 30 29 29 25 22 18 27 27 29 30 31 31 29 28 30 26 22 22 23 21 23 24
18 20 22 24 25 26 27 27 29 31 32 32 30 29 28 29 30 31 31 30 30 31 29 31 28 26 16 25 29 27 26 27 31 32 31 30 25 23 22 27 25 25 28
18 20 21 22 24 25 26 27 28 28 29 31 33 33 30 29 29 30 30 30 29 31 31 31 31 28 25 19 33 26 10 17 18 23 27 31 25 24 25 29 33 30 32
18 19 20 22 23 24 25 27 28 29 32 32 33 34 33 29 29 29 29 29 29 31 32 30 32 29 30 25 16 40 36 24 15 10 19 25 27 26 25 28 36 31 32
17 18 18 20 22 23 24 25 27 28 29 31 32 33 32 31 28 29 29 29 30 30 32 32 29 32 32 30 19 17 38 40 30 25 20 19 25 25 29 25 29 34 37
15 16 16 18 19 21 23 24 26 28 29 32 32 35 35 33 32 30 30 30 30 31 32 33 33 31 33 33 31 26 30 41 41 33 28 25 19 22 26 26 32 37 45
Wind_Direction
7 16 43 53 42 27 13 11 10 2 356 350 351 351 351 353 358 358 359 2 6 9 8 6 357 9 356 353 335 359 5 42 60 55 63 100 112 122 118 113 107 122 125
3 19 39 55 57 39 7 9 10 4 9 352 341 341 343 344 345 344 345 348 353 354 355 353 353 347 342 10 350 334 349 16 73 65 58 101 123 134 138 147 142 151 145
14 22 29 71 65 53 9 353 337 6 360 358 348 342 345 339 337 339 340 340 342 346 345 343 349 334 333 345 351 329 319 303 123 77 66 66 127 155 157 148 151 166 166
16 25 23 51 43 41 9 1 346 335 345 337 339 347 345 342 336 335 335 337 336 334 334 338 328 335 327 328 338 314 298 267 234 152 98 90 321 237 184 174 163 176 161
18 24 26 53 55 8 338 350 340 331 336 336 334 332 338 340 338 335 333 332 330 327 325 322 322 316 316 319 309 314 294 274 264 214 140 139 258 273 234 192 176 151 139
16 22 21 35 40 18 313 326 330 330 328 324 318 312 303 313 322 327 335 333 326 318 314 314 310 310 309 301 298 291 288 276 252 167 126 259 249 262 239 213 183 170 167
16 19 20 19 28 26 7 352 339 323 325 320 311 303 295 298 308 315 321 325 321 314 308 306 306 301 301 301 292 281 275 278 269 226 174 291 267 263 247 214 200 190 190
17 16 18 20 16 6 2 359 331 325 320 322 312 304 298 291 298 302 308 316 318 311 307 303 300 300 296 292 288 278 267 269 267 252 216 257 268 267 244 222 209 198 204
21 21 18 15 15 12 360 351 343 335 331 316 311 309 302 290 288 287 301 304 305 311 308 302 297 295 295 292 285 277 268 263 263 262 220 256 267 266 249 228 215 213 212
23 20 19 17 13 9 1 346 336 335 326 323 316 306 303 295 285 283 289 290 301 305 306 303 298 296 293 290 287 278 270 266 265 257 233 240 257 255 254 231 222 216 217
19 16 14 11 9 8 5 355 335 326 319 304 301 300 303 300 291 281 290 286 295 301 302 299 295 293 293 291 287 277 271 268 266 263 233 250 253 251 256 231 222 219 217
13 11 9 6 3 360 357 357 356 345 333 314 304 294 289 301 293 281 276 274 296 300 304 298 290 288 289 292 284 285 271 268 261 253 244 246 248 254 251 235 227 224 222
10 7 6 4 2 356 353 351 348 347 344 340 328 306 300 291 285 275 268 274 292 303 303 298 293 290 300 299 287 268 275 266 252 250 254 253 257 257 250 236 232 226 223
9 8 7 6 3 1 357 352 347 345 342 338 336 326 311 296 280 275 269 264 277 293 297 295 289 279 265 274 272 266 255 252 257 258 260 260 252 254 248 238 237 235 230
12 12 12 11 10 7 4 359 353 346 342 341 336 330 323 314 301 287 279 272 266 264 306 293 292 277 263 255 270 264 259 251 256 261 258 261 252 248 250 246 244 239 239
16 15 13 13 13 10 8 6 3 357 348 340 337 335 326 325 316 300 294 280 270 260 256 290 287 292 274 261 254 260 267 260 248 251 262 268 259 252 250 252 247 245 244
13 9 7 5 3 1 3 2 1 359 356 350 340 332 329 327 321 315 300 289 281 265 257 257 282 286 284 267 265 256 255 249 261 255 258 266 268 253 252 249 250 251 248
7 4 360 358 354 351 350 351 352 352 352 349 345 339 331 326 324 318 314 295 289 272 264 258 260 273 274 272 263 260 254 256 259 257 265 266 267 260 248 248 249 257 264
4 2 0 359 356 353 351 347 343 343 344 343 342 337 335 331 323 320 315 311 296 287 273 263 250 269 269 267 267 261 259 260 258 259 258 261 260 261 245 242 248 258 280
2 2 359 357 354 352 349 345 343 342 339 342 338 337 332 330 329 321 316 312 306 293 287 266 269 255 261 258 272 261 260 262 260 258 260 258 255 250 234 240 239 238 242
358 356 354 349 347 343 341 339 336 338 339 338 338 336 331 328 326 326 318 312 310 303 289 290 267 280 252 257 263 262 266 264 261 259 253 260 254 244 230 239 240 230 229
353 350 348 347 345 343 341 340 340 336 334 334 332 331 331 327 327 327 324 316 309 306 301 285 286 275 257 259 257 260 259 265 255 256 250 255 249 233 222 225 237 229 229
344 343 342 341 340 340 340 338 335 332 330 329 329 330 334 332 327 327 324 320 311 305 303 295 290 289 278 232 252 250 221 238 257 251 258 252 243 248 230 223 231 228 225
337 339 340 341 342 341 340 338 338 338 335 334 332 328 329 331 328 326 323 320 315 306 302 298 290 288 281 266 250 248 237 237 231 253 254 244 239 239 230 223 232 226 224
336 340 344 343 342 340 340 338 337 336 334 331 330 327 326 327 328 325 324 320 316 308 302 301 293 284 282 276 255 263 243 234 236 237 255 255 237 235 234 231 228 226 225
331 343 350 352 352 348 344 342 339 336 333 330 330 329 328 328 327 326 323 322 318 313 305 300 297 289 280 280 263 247 251 233 228 234 231 243 248 239 239 238 224 218 211
Height
1558 1554 1552 1552 1552 1553 1552 1551 1551 1552 1552 1553 1553 1553 1553 1553 1553 1552 1552 1552 1553 1553 1553 1553 1553 1552 1552 1553 1553 1553 1554 1555 1554 1553 1554 1554 1555 1555 1557 1557 1557 1557 1557
1561 1556 1554 1553 1552 1553 1554 1553 1553 1552 1552 1553 1554 1554 1554 1554 1554 1554 1553 1553 1554 1554 1554 1554 1553 1553 1554 1552 1553 1555 1555 1556 1556 1556 1556 1556 1557 1557 1557 1558 1559 1560 1559
1560 1556 1555 1554 1553 1553 1554 1554 1553 1553 1553 1554 1554 1555 1554 1555 1555 1555 1555 1554 1554 1554 1554 1554 1554 1554 1554 1554 1555 1554 1555 1556 1557 1557 1558 1557 1558 1558 1559 1560 1561 1560 1560
1560 1556 1555 1554 1554 1553 1554 1554 1555 1554 1553 1554 1554 1554 1555 1556 1556 1556 1555 1555 1555 1555 1555 1554 1555 1555 1555 1555 1556 1556 1556 1557 1558 1559 1560 1559 1560 1560 1561 1561 1561 1562 1562
1561 1558 1556 1554 1554 1554 1555 1555 1555 1555 1555 1554 1554 1555 1555 1555 1556 1556 1556 1555 1555 1555 1555 1555 1555 1555 1556 1556 1556 1556 1557 1557 1557 1559 1559 1559 1560 1561 1561 1561 1563 1563 1564
1561 1559 1557 1555 1554 1554 1555 1555 1555 1555 1555 1555 1554 1555 1555 1556 1556 1556 1556 1555 1555 1555 1555 1555 1555 1555 1556 1556 1556 1556 1556 1557 1558 1559 1559 1561 1562 1561 1561 1562 1564 1564 1566
1562 1560 1558 1556 1555 1555 1555 1555 1555 1555 1554 1555 1554 1554 1555 1556 1556 1556 1556 1556 1555 1554 1555 1555 1555 1555 1555 1556 1556 1556 1556 1556 1557 1558 1558 1560 1562 1561 1561 1562 1564 1565 1567
1562 1561 1559 1557 1556 1555 1555 1555 1555 1555 1555 1554 1554 1554 1554 1555 1556 1556 1556 1556 1555 1554 1554 1554 1554 1554 1555 1555 1555 1555 1555 1555 1556 1557 1558 1560 1560 1560 1560 1562 1563 1564 1566
1564 1562 1558 1557 1557 1556 1556 1555 1555 1554 1554 1554 1553 1553 1553 1554 1554 1554 1555 1555 1555 1554 1554 1554 1553 1553 1553 1554 1554 1554 1553 1554 1555 1555 1557 1558 1558 1559 1560 1561 1562 1564 1566
1563 1561 1559 1558 1556 1555 1554 1554 1554 1554 1553 1553 1553 1552 1552 1552 1552 1553 1553 1553 1554 1553 1553 1553 1552 1552 1551 1552 1552 1552 1553 1553 1553 1554 1555 1555 1556 1557 1558 1560 1561 1563 1566
1562 1560 1558 1557 1556 1555 1555 1554 1554 1553 1553 1552 1552 1551 1551 1550 1550 1550 1551 1552 1552 1552 1551 1551 1551 1551 1550 1550 1550 1551 1551 1551 1551 1552 1554 1554 1554 1555 1556 1558 1560 1562 1563
1559 1558 1557 1557 1555 1555 1553 1552 1551 1551 1551 1550 1550 1550 1549 1548 1549 1549 1549 1550 1549 1550 1550 1549 1548 1548 1549 1548 1548 1549 1549 1550 1550 1551 1551 1551 1551 1552 1553 1555 1557 1559 1561
1560 1560 1557 1556 1555 1553 1552 1550 1550 1549 1548 1547 1546 1546 1546 1546 1546 1546 1547 1547 1547 1547 1547 1546 1546 1545 1546 1546 1547 1547 1547 1548 1548 1549 1549 1549 1549 1550 1550 1552 1555 1556 1558
1560 1558 1557 1556 1555 1553 1552 1550 1548 1547 1546 1544 1544 1543 1542 1542 1543 1542 1543 1544 1544 1544 1544 1544 1543 1544 1544 1545 1544 1544 1545 1545 1546 1546 1546 1546 1547 1547 1548 1550 1551 1553 1555
1560 1558 1557 1556 1554 1553 1551 1550 1548 1546 1544 1543 1541 1540 1540 1539 1538 1538 1539 1540 1541 1540 1539 1540 1540 1539 1540 1541 1541 1540 1541 1541 1542 1543 1542 1542 1543 1544 1545 1547 1548 1550 1551
1560 1558 1557 1556 1554 1553 1551 1550 1548 1546 1543 1541 1540 1539 1536 1537 1535 1534 1534 1535 1535 1535 1535 1534 1535 1535 1534 1536 1536 1537 1537 1536 1537 1538 1538 1538 1540 1541 1542 1543 1544 1545 1546
1559 1558 1556 1554 1552 1551 1550 1549 1548 1545 1544 1541 1539 1536 1535 1533 1531 1531 1530 1530 1529 1529 1529 1530 1531 1531 1531 1531 1531 1531 1532 1532 1533 1534 1533 1534 1535 1537 1538 1539 1539 1540 1540
1560 1559 1558 1556 1554 1552 1548 1546 1545 1544 1542 1540 1538 1535 1533 1531 1529 1527 1527 1525 1524 1524 1524 1523 1525 1526 1526 1526 1526 1526 1526 1526 1528 1528 1529 1530 1530 1532 1534 1535 1535 1535 1535
1559 1557 1555 1553 1551 1549 1548 1547 1545 1543 1540 1538 1536 1533 1530 1528 1526 1524 1522 1521 1519 1517 1518 1518 1517 1518 1520 1521 1520 1520 1520 1520 1521 1521 1523 1525 1526 1527 1529 1530 1532 1532 1531
1556 1554 1552 1549 1546 1544 1543 1542 1542 1540 1538 1535 1533 1531 1528 1525 1522 1520 1519 1518 1515 1512 1511 1511 1510 1511 1512 1513 1514 1513 1513 1514 1515 1515 1516 1518 1520 1522 1525 1525 1527 1530 1530
1555 1553 1551 1549 1547 1545 1542 1539 1538 1534 1533 1532 1530 1528 1526 1523 1519 1516 1514 1513 1510 1507 1506 1504 1503 1503 1503 1506 1507 1507 1507 1507 1508 1509 1509 1511 1514 1516 1519 1521 1523 1527 1528
1553 1552 1550 1548 1545 1543 1542 1540 1537 1534 1531 1529 1527 1526 1523 1520 1517 1513 1509 1507 1505 1502 1500 1500 1499 1497 1495 1499 1500 1501 1500 1501 1500 1501 1503 1504 1507 1510 1513 1516 1519 1521 1524
1552 1550 1548 1546 1544 1541 1540 1537 1535 1532 1530 1526 1522 1520 1518 1516 1514 1510 1507 1503 1501 1498 1495 1494 1492 1493 1490 1488 1493 1495 1493 1494 1495 1493 1495 1497 1500 1503 1506 1510 1512 1516 1518
1551 1549 1546 1544 1541 1539 1536 1534 1531 1527 1525 1522 1519 1516 1514 1513 1510 1507 1503 1499 1496 1493 1491 1489 1486 1484 1486 1481 1482 1485 1486 1488 1489 1489 1489 1490 1493 1496 1500 1502 1506 1508 1513
1548 1546 1544 1541 1539 1536 1534 1531 1527 1524 1522 1519 1517 1513 1511 1508 1507 1503 1499 1495 1492 1488 1485 1482 1481 1478 1479 1475 1472 1477 1477 1479 1481 1484 1485 1486 1487 1488 1493 1496 1499 1502 1504
1546 1543 1542 1539 1536 1534 1531 1528 1524 1521 1518 1515 1513 1508 1505 1503 1500 1498 1494 1490 1486 1483 1478 1475 1473 1470 1465 1464 1465 1467 1470 1470 1470 1476 1480 1482 1483 1483 1486 1489 1493 1494 1498